{"data":{"norad_id":59779,"intl_designator":"2024-092G","name":"2024-092G","alt_names":[],"object_type":"PAYLOAD","status":"ACTIVE","operator":null,"country":"CIS","launch_date":"2024-05-16","launch_site_code":"PLMSC","launch_vehicle":null,"mission":null,"orbit_class":"UNKNOWN","rcs_meters":null,"size_class":null,"mass_kg":null,"dimensions":null,"purposes":[],"wikipedia_slug":null,"has_3d_model":false,"image_url":null,"decayed_at":null,"tle_current":{"epoch":"2026-05-25T05:37:30.583200Z","epoch_age_seconds":48025,"freshness":"FRESH","line1":"1 59779U 24092G   26145.23438175  .00000144  00000+0  70420-4 0  9990","line2":"2 59779  98.6672 264.3026 0010698 276.0096  83.9868 14.31836042105611","mean_motion":14.31836042,"eccentricity":0.0010698,"inclination_deg":98.6672,"raan_deg":264.3026,"arg_perigee_deg":276.0096,"mean_anomaly_deg":83.9868,"bstar":7.042e-5,"rev_number":10561,"period_min":100.57017408143,"perigee_km":777.93647282133,"apogee_km":793.26400501773,"semimajor_km":7163.7372389195,"source":"CELESTRAK","updated_at":"2026-05-25T13:38:01.676176Z"}}}